TimeCST,TemperatureF,Dew PointF,Humidity,Sea Level PressureIn,VisibilityMPH,Wind Direction,Wind SpeedMPH,Gust SpeedMPH,PrecipitationIn,Events,Conditions,WindDirDegrees,DateUTC
12:53 AM,51.1,44.1,77,29.93,10.0,SSE,20.7,27.6,N/A,,Scattered Clouds,160,2012-12-14 06:53:00
1:53 AM,51.1,45.0,80,29.90,10.0,SE,12.7,-,N/A,,Mostly Cloudy,140,2012-12-14 07:53:00
2:53 AM,51.1,44.1,77,29.92,10.0,SSE,15.0,23.0,N/A,,Mostly Cloudy,150,2012-12-14 08:53:00
3:53 AM,51.1,44.1,77,29.90,10.0,SSE,19.6,27.6,N/A,,Mostly Cloudy,160,2012-12-14 09:53:00
4:53 AM,51.1,44.1,77,29.86,10.0,SSE,20.7,31.1,N/A,,Scattered Clouds,160,2012-12-14 10:53:00
5:53 AM,52.0,44.1,74,29.81,10.0,SSE,24.2,32.2,N/A,,Clear,160,2012-12-14 11:53:00
6:53 AM,52.0,43.0,71,29.81,10.0,SSE,20.7,32.2,N/A,,Clear,150,2012-12-14 12:53:00
7:50 AM,53.6,42.8,67,29.92,10.0,SE,20.7,27.6,N/A,,Clear,140,2012-12-14 13:50:00
7:53 AM,52.0,44.1,74,29.84,10.0,SSE,17.3,26.5,N/A,,Clear,150,2012-12-14 13:53:00
8:53 AM,53.1,44.1,71,29.84,10.0,SSE,16.1,-,N/A,,Clear,150,2012-12-14 14:53:00
9:53 AM,54.0,45.0,72,29.84,10.0,SSE,20.7,28.8,N/A,,Clear,150,2012-12-14 15:53:00
10:53 AM,57.9,44.1,60,29.82,10.0,SSE,17.3,-,N/A,,Clear,150,2012-12-14 16:53:00
11:53 AM,57.9,46.9,67,29.78,10.0,SE,19.6,29.9,N/A,,Clear,140,2012-12-14 17:53:00
12:53 PM,64.9,45.0,48,29.71,10.0,SSE,17.3,24.2,N/A,,Clear,150,2012-12-14 18:53:00
1:34 PM,69.8,44.6,40,29.75,4.0,South,28.8,42.6,N/A,,Haze,180,2012-12-14 19:34:00
1:53 PM,71.1,44.1,38,29.64,10.0,South,31.1,41.4,N/A,,Partly Cloudy,180,2012-12-14 19:53:00
2:53 PM,73.9,39.9,29,29.63,10.0,SSW,25.3,44.9,N/A,,Clear,210,2012-12-14 20:53:00
3:53 PM,73.0,42.1,33,29.67,10.0,SSW,26.5,40.3,N/A,,Clear,210,2012-12-14 21:53:00
4:21 PM,60.8,35.6,39,29.82,2.5,NW,38.0,44.9,N/A,,Haze,320,2012-12-14 22:21:00
4:31 PM,59.0,35.6,42,29.84,3.0,NW,32.2,39.1,N/A,,Haze,310,2012-12-14 22:31:00
4:53 PM,57.9,36.0,44,29.78,6.0,NW,21.9,34.5,N/A,,Haze,320,2012-12-14 22:53:00
5:53 PM,55.9,35.1,45,29.82,10.0,NW,16.1,-,N/A,,Overcast,310,2012-12-14 23:53:00
6:53 PM,54.0,34.0,47,29.84,10.0,NW,9.2,-,N/A,,Overcast,310,2012-12-15 00:53:00
7:53 PM,52.0,34.0,50,29.88,10.0,Calm,Calm,-,N/A,,Overcast,0,2012-12-15 01:53:00
8:53 PM,48.9,34.0,56,29.90,10.0,South,3.5,-,N/A,,Overcast,190,2012-12-15 02:53:00
9:53 PM,52.0,33.1,49,29.91,10.0,NW,4.6,-,N/A,,Overcast,310,2012-12-15 03:53:00
10:53 PM,48.0,32.0,54,29.92,10.0,WSW,5.8,-,N/A,,Overcast,240,2012-12-15 04:53:00
11:53 PM,50.0,28.9,44,29.92,10.0,West,9.2,-,N/A,,Clear,260,2012-12-15 05:53:00